When you browse on this site, cookies collect data to enhance your experience and personalize the content and advertising you see.
Visit our Privacy Policy to learn more. By continuing to use the site, you agree to this use of cookies and data.
  • In Czech Republic
  • List of Countries
  • For 7 days
  • Water Temperature
  • Satellite Maps
  • Weather Map
  • Weather Widgets
  • user-avatar
    Login

    Hourly Weather Tonton

    Today, 16 December, Sunday

    Time Temperature Precipitation Wind Pressure Humidity
    00:00 +5°C° 0 mm 7 mps 751 mmHg 84%
    01:00 +5°C° 0.1 mm 6 mps 751 mmHg 85%
    02:00 +5°C° 0.1 mm 6 mps 751 mmHg 87%
    03:00 +6°C° 0.1 mm 5 mps 752 mmHg 88%
    04:00 +6°C° 0.1 mm 5 mps 752 mmHg 88%
    05:00 +5°C° 0.1 mm 5 mps 752 mmHg 88%
    06:00 +5°C° 0.1 mm 5 mps 752 mmHg 88%
    07:00 +5°C° 0.1 mm 4 mps 752 mmHg 88%
    08:00 +5°C° 0.1 mm 4 mps 752 mmHg 89%
    09:00 +5°C° 0.1 mm 4 mps 752 mmHg 89%
    10:00 +6°C° 0.3 mm 4 mps 752 mmHg 87%
    11:00 +7°C° 0.3 mm 5 mps 752 mmHg 85%
    12:00 +8°C° 0.3 mm 5 mps 752 mmHg 83%
    13:00 +8°C° 0.6 mm 4 mps 752 mmHg 84%
    14:00 +8°C° 0.6 mm 4 mps 752 mmHg 86%
    15:00 +9°C° 0.6 mm 3 mps 751 mmHg 88%
    16:00 +8°C° 0.7 mm 3 mps 752 mmHg 89%
    17:00 +8°C° 0.7 mm 3 mps 752 mmHg 90%
    18:00 +7°C° 0.7 mm 3 mps 752 mmHg 91%
    19:00 +6°C° 0.1 mm 4 mps 753 mmHg 90%
    20:00 +6°C° 0.1 mm 4 mps 754 mmHg 89%
    21:00 +6°C° 0.1 mm 4 mps 755 mmHg 88%
    22:00 +5°C° 0 mm 4 mps 755 mmHg 88%
    23:00 +5°C° 0 mm 4 mps 756 mmHg 88%

    Tomorrow, 17 December, Monday

    Time Temperature Precipitation Wind Pressure Humidity
    00:00 +5°C° 0 mm 4 mps 757 mmHg 88%
    01:00 +5°C° 0 mm 4 mps 757 mmHg 88%
    02:00 +5°C° 0 mm 4 mps 758 mmHg 88%
    03:00 +5°C° 0 mm 4 mps 758 mmHg 88%
    04:00 +5°C° 0 mm 4 mps 759 mmHg 89%
    05:00 +5°C° 0 mm 4 mps 759 mmHg 89%
    06:00 +5°C° 0 mm 4 mps 760 mmHg 89%
    07:00 +5°C° 0 mm 4 mps 760 mmHg 89%
    08:00 +5°C° 0 mm 4 mps 761 mmHg 89%
    09:00 +5°C° 0 mm 4 mps 761 mmHg 89%
    10:00 +7°C° 0 mm 5 mps 761 mmHg 86%
    11:00 +8°C° 0 mm 5 mps 761 mmHg 84%
    12:00 +9°C° 0 mm 6 mps 761 mmHg 82%
    13:00 +9°C° 0 mm 6 mps 761 mmHg 83%
    14:00 +9°C° 0 mm 7 mps 760 mmHg 85%
    15:00 +9°C° 0 mm 7 mps 760 mmHg 86%
    16:00 +9°C° 0.1 mm 7 mps 760 mmHg 87%
    17:00 +9°C° 0.1 mm 8 mps 760 mmHg 88%
    18:00 +9°C° 0.1 mm 8 mps 760 mmHg 89%
    19:00 +9°C° 0.1 mm 8 mps 759 mmHg 89%
    20:00 +10°C° 0.1 mm 8 mps 759 mmHg 88%
    21:00 +10°C° 0.1 mm 9 mps 759 mmHg 88%
    22:00 +10°C° 0.1 mm 9 mps 759 mmHg 87%
    23:00 +9°C° 0.1 mm 10 mps 758 mmHg 87%

    Day after tomorrow, 18 December, Tuesday

    Time Temperature Precipitation Wind Pressure Humidity
    00:00 +9°C° 0.1 mm 11 mps 758 mmHg 87%
    01:00 +9°C° 0.1 mm 11 mps 757 mmHg 86%
    02:00 +9°C° 0.1 mm 11 mps 756 mmHg 85%
    03:00 +9°C° 0.1 mm 11 mps 755 mmHg 84%
    04:00 +9°C° 0 mm 11 mps 755 mmHg 82%
    05:00 +9°C° 0 mm 12 mps 754 mmHg 80%
    06:00 +9°C° 0 mm 12 mps 753 mmHg 78%
    07:00 +8°C° 0.2 mm 13 mps 752 mmHg 78%
    08:00 +8°C° 0.2 mm 13 mps 751 mmHg 78%
    09:00 +8°C° 0.2 mm 13 mps 750 mmHg 79%
    10:00 +8°C° 1.2 mm 13 mps 750 mmHg 81%
    11:00 +8°C° 1.2 mm 13 mps 749 mmHg 84%
    12:00 +8°C° 1.2 mm 13 mps 748 mmHg 86%
    13:00 +8°C° 1.6 mm 13 mps 748 mmHg 87%
    14:00 +8°C° 1.6 mm 12 mps 747 mmHg 89%
    15:00 +8°C° 1.6 mm 11 mps 747 mmHg 90%
    16:00 +7°C° 1.1 mm 9 mps 747 mmHg 89%
    17:00 +6°C° 1.1 mm 7 mps 748 mmHg 89%
    18:00 +7°C° 1.1 mm 4 mps 748 mmHg 88%
    19:00 +6°C° 0.4 mm 4 mps 749 mmHg 89%
    20:00 +6°C° 0.4 mm 5 mps 750 mmHg 90%
    21:00 +6°C° 0.4 mm 5 mps 750 mmHg 91%
    22:00 +6°C° 0.4 mm 5 mps 751 mmHg 90%
    23:00 +6°C° 0.4 mm 5 mps 751 mmHg 89%

    19 December, Wednesday

    Time Temperature Precipitation Wind Pressure Humidity
    00:00 +6°C° 0.4 mm 5 mps 752 mmHg 88%
    01:00 +6°C° 0.2 mm 5 mps 752 mmHg 88%
    02:00 +6°C° 0.2 mm 5 mps 752 mmHg 88%
    03:00 +6°C° 0.2 mm 4 mps 753 mmHg 88%
    04:00 +6°C° 0.1 mm 4 mps 753 mmHg 88%
    05:00 +5°C° 0.1 mm 4 mps 753 mmHg 88%
    06:00 +5°C° 0.1 mm 4 mps 753 mmHg 88%
    07:00 +5°C° 0 mm 4 mps 754 mmHg 87%
    08:00 +5°C° 0 mm 4 mps 754 mmHg 87%
    09:00 +4°C° 0 mm 3 mps 754 mmHg 87%
    10:00 +6°C° 0 mm 4 mps 755 mmHg 84%
    11:00 +7°C° 0 mm 4 mps 755 mmHg 80%
    12:00 +8°C° 0 mm 5 mps 755 mmHg 77%
    13:00 +7°C° 0.1 mm 5 mps 755 mmHg 78%
    14:00 +7°C° 0.1 mm 5 mps 755 mmHg 79%
    15:00 +7°C° 0.1 mm 5 mps 755 mmHg 80%
    16:00 +6°C° 0.1 mm 5 mps 755 mmHg 81%
    17:00 +6°C° 0.1 mm 5 mps 756 mmHg 83%
    18:00 +5°C° 0.1 mm 5 mps 756 mmHg 85%
    19:00 +5°C° 0.2 mm 5 mps 756 mmHg 85%
    20:00 +5°C° 0.2 mm 5 mps 756 mmHg 85%
    21:00 +5°C° 0.2 mm 5 mps 757 mmHg 86%
    22:00 +5°C° 0.2 mm 5 mps 757 mmHg 86%
    23:00 +5°C° 0.2 mm 5 mps 757 mmHg 86%

    20 December, Thursday

    Time Temperature Precipitation Wind Pressure Humidity
    00:00 +5°C° 0.2 mm 5 mps 757 mmHg 87%
    01:00 +4°C° 0 mm 6 mps 757 mmHg 87%
    02:00 +4°C° 0 mm 6 mps 757 mmHg 87%
    03:00 +4°C° 0 mm 6 mps 757 mmHg 86%
    04:00 +4°C° 0 mm 6 mps 757 mmHg 87%
    05:00 +4°C° 0 mm 6 mps 757 mmHg 87%
    06:00 +4°C° 0 mm 6 mps 758 mmHg 87%
    07:00 +4°C° 0.1 mm 6 mps 758 mmHg 87%
    08:00 +4°C° 0.1 mm 6 mps 758 mmHg 86%
    09:00 +5°C° 0.1 mm 6 mps 759 mmHg 86%
    10:00 +5°C° 0.2 mm 6 mps 759 mmHg 83%
    11:00 +7°C° 0.2 mm 6 mps 759 mmHg 81%
    12:00 +8°C° 0.2 mm 6 mps 759 mmHg 78%
    13:00 +8°C° 0.2 mm 6 mps 759 mmHg 79%
    14:00 +8°C° 0.2 mm 6 mps 759 mmHg 80%
    15:00 +8°C° 0.2 mm 5 mps 759 mmHg 81%
    16:00 +7°C° 0.1 mm 5 mps 759 mmHg 83%
    17:00 +6°C° 0.1 mm 4 mps 759 mmHg 85%
    18:00 +6°C° 0.1 mm 4 mps 759 mmHg 87%
    19:00 +5°C° 0 mm 4 mps 759 mmHg 87%
    20:00 +5°C° 0 mm 3 mps 759 mmHg 87%
    21:00 +5°C° 0 mm 3 mps 759 mmHg 88%
    22:00 +7°C° 0.2 mm 3 mps 758 mmHg 89%
    23:00 +6°C° 0.2 mm 4 mps 757 mmHg 91%

    21 December, Friday

    Time Temperature Precipitation Wind Pressure Humidity
    00:00 +7°C° 0.2 mm 4 mps 757 mmHg 92%
    01:00 +8°C° 1.2 mm 5 mps 755 mmHg 93%
    02:00 +8°C° 1.2 mm 6 mps 754 mmHg 95%
    03:00 +9°C° 1.2 mm 6 mps 753 mmHg 96%
    04:00 +10°C° 1.6 mm 6 mps 752 mmHg 96%
    05:00 +10°C° 1.6 mm 6 mps 751 mmHg 96%
    06:00 +11°C° 1.6 mm 6 mps 750 mmHg 96%
    07:00 +11°C° 0.2 mm 7 mps 749 mmHg 95%
    08:00 +11°C° 0.2 mm 8 mps 749 mmHg 94%
    09:00 +11°C° 0.2 mm 8 mps 749 mmHg 93%
    10:00 +11°C° 0 mm 9 mps 750 mmHg 89%
    11:00 +10°C° 0 mm 9 mps 751 mmHg 86%
    12:00 +9°C° 0 mm 10 mps 751 mmHg 82%
    13:00 +10°C° 0 mm 9 mps 752 mmHg 83%
    14:00 +9°C° 0 mm 8 mps 753 mmHg 83%
    15:00 +9°C° 0 mm 7 mps 754 mmHg 83%
    16:00 +9°C° 0 mm 7 mps 754 mmHg 86%
    17:00 +8°C° 0 mm 7 mps 754 mmHg 88%
    18:00 +8°C° 0 mm 6 mps 754 mmHg 91%
    19:00 +8°C° 0.1 mm 7 mps 754 mmHg 90%
    20:00 +9°C° 0.1 mm 8 mps 754 mmHg 90%
    21:00 +8°C° 0.1 mm 9 mps 754 mmHg 89%
    22:00 +8°C° 0.3 mm 9 mps 754 mmHg 90%
    23:00 +9°C° 0.3 mm 8 mps 754 mmHg 90%
    Show more